NIEUW!!! Volg onze weer- en natuurfoto's op Instagram @ weerstationmaaseik.be

WS Maaseik 1 Meer informatie WS Maaseik 1


WS Maaseik 2 Meer informatie WS Maaseik 2


Regen radar Meer informatie rain snow radar


Bezoek onze andere website:

Vorige versie
weerstation Maaseik


Bezoek ook eens deze sites:

Weerstation Geleen



Het weer levert geen direct gevaar op.    Er zijn geen waarschuwingen afgegeven.

15 daagse weersverwachting Rouen (FR)

  • Overzicht
  • Per uur
  • 15 dagen
  • Extra
  • Vergelijk
  • Kaarten
  • Dagkaart
  • Meer »
  • Info
  • Statistieken
  • Directe link
    Temp 6h Neerslag Wind  
 07:49     18:29    Daglengte: 10:40 Vandaag
07:00
11°
 
5
13:00
12°
 
7
19:00
11°
1.0 mm
7
 07:47     18:31    Daglengte: 10:44 Morgen
01:00
10°
2.9 mm
6
07:00
3.5 mm
5
13:00
 
7
19:00
7.9 mm
7
 07:45     18:33    Daglengte: 10:48 Woensdag 26 Feb
01:00
9.8 mm
7
07:00
14.6 mm
6
13:00
15.8 mm
7
19:00
15.5 mm
6
 07:43     18:34    Daglengte: 10:51 Donderdag 27 Feb
01:00
16.6 mm
4
Locatie info
Region: Haute-Normandie
Latitude: 49.4402°N
Longitude: 1.0894°E
21 masl
Postcode: 76000
Temp/Neerslag /Baro Onweer/DauwpuntSneeuw
    Temp Baro 1h Neerslag Dauwpunt Wind UV BewolkingSneeuw  
 07:49     18:29    Daglengte: 10:40 Vandaag
06:00
11°
1021.8 hPa
49%
10.1°
5
Windvlaag: 3.7 m/s
91%
07:00
11°
1021.0 hPa
76%
10.1°
5
Windvlaag: 3.8 m/s
91%
08:00
11°
1020.3 hPa
64%
10.0°
6
Windvlaag: 3.9 m/s
91%
09:00
11°
1019.7 hPa
66%
9.7°
5
Windvlaag: 4 m/s
87%
10:00
11°
1019.1 hPa
15%
9.5°
6
Windvlaag: 4.5 m/s
90%
11:00
12°
1018.2 hPa
15%
9.4°
6
Windvlaag: 4.8 m/s
86%
12:00
12°
1017.6 hPa
15%
8.2°
8
Windvlaag: 5 m/s
89%
13:00
12°
1016.6 hPa
57%
7.8°
7
Windvlaag: 5.1 m/s
77%
14:00
13°
1015.5 hPa
58%
7.6°
8
Windvlaag: 4.8 m/s
78%
15:00
13°
1014.2 hPa
70%
7.2°
8
Windvlaag: 4.9 m/s
79%
16:00
13°
1013.3 hPa
75%
6.7°
8
Windvlaag: 5.4 m/s
87%
17:00
12°
1012.6 hPa
66%
6.7°
7
Windvlaag: 5.3 m/s
87%
18:00
12°
1012.2 hPa
77%
6.8°
7
Windvlaag: 4.6 m/s
91%
19:00
11°
1012.1 hPa 1.0 mm
82%
7.2°
7
Windvlaag: 3.9 m/s
91%
20:00
11°
1011.8 hPa 1.0 mm
82%
7.6°
6
Windvlaag: 3.9 m/s
90%
21:00
11°
1011.2 hPa 1.0 mm
82%
8.1°
6
Windvlaag: 3.6 m/s
91%
22:00
10°
1010.9 hPa 1.0 mm
82%
8.4°
6
Windvlaag: 1.7 m/s
91%
23:00
10°
1010.3 hPa
82%
8.6°
6
Windvlaag: 2 m/s
91%
 07:47     18:31    Daglengte: 10:44 Morgen
00:00
10°
1009.8 hPa
82%
8.5°
6
Windvlaag: 2.1 m/s
91%
01:00
10°
Voelt als: 7.3°
1009.2 hPa
77%
8.2°
6
Windvlaag: 2.1 m/s
91%
02:00
10°
Voelt als: 7.0°
1008.9 hPa 1.3 mm
82%
8.0°
5
Windvlaag: 1.5 m/s
89%
03:00
Voelt als: 5.8°
1008.7 hPa 1.2 mm
82%
6.7°
6
Windvlaag: 2 m/s
91%
04:00
Voelt als: 5.3°
1008.2 hPa 1.0 mm
82%
6.2°
6
Windvlaag: 1.5 m/s
81%
05:00
Voelt als: 4.7°
1008.0 hPa
76%
5.1°
5
Windvlaag: 1.2 m/s
69%
06:00
Voelt als: 4.3°
1008.1 hPa
74%
4.3°
5
Windvlaag: 1.4 m/s
41%
07:00
Voelt als: 4.1°
1008.0 hPa
79%
3.7°
5
Windvlaag: 1.2 m/s
56%
08:00
Voelt als: 3.8°
1007.6 hPa
61%
3.4°
5
Windvlaag: 1.5 m/s
43%
09:00
Voelt als: 3.8°
1007.7 hPa
82%
3.5°
5
Windvlaag: 2.6 m/s
71%
10:00
Voelt als: 4.2°
1007.5 hPa
70%
3.5°
5
Windvlaag: 2.5 m/s
21%
11:00
Voelt als: 4.8°
1007.1 hPa
14%
3.1°
6
Windvlaag: 2.7 m/s
33%
12:00
Voelt als: 5.6°
1006.8 hPa
66%
2.8°
7
Windvlaag: 1.9 m/s
21%
13:00
Voelt als: 6.1°
1006.2 hPa
82%
3.5°
7
Windvlaag: 2.2 m/s
71%
14:00
Voelt als: 4.9°
1005.4 hPa 1.2 mm
82%
3.7°
7
Windvlaag: 3.3 m/s
67%
15:00
Voelt als: 4.8°
1004.3 hPa 1.1 mm
82%
3.7°
7
Windvlaag: 3.2 m/s
53%
16:00
Voelt als: 4.2°
1003.7 hPa 1.8 mm
77%
3.7°
7
Windvlaag: 3.1 m/s
58%
17:00
Voelt als: 4.0°
1002.9 hPa 1.1 mm
75%
3.4°
6
Windvlaag: 3.5 m/s
55%
18:00
Voelt als: 3.2°
1002.4 hPa 1.1 mm
77%
3.1°
7
Windvlaag: 3 m/s
52%
19:00
Voelt als: 2.0°
1002.2 hPa 1.6 mm
82%
3.4°
7
Windvlaag: 2 m/s
83%
20:00
Voelt als: 0.8°
1002.3 hPa 1.8 mm
82%
3.2°
8
Windvlaag: 2.7 m/s
80%
21:00
Voelt als: 0.2°
1002.2 hPa 1.7 mm
82%
1.9°
8
Windvlaag: 2.2 m/s
31%
22:00
Voelt als: -0.3°
1002.1 hPa
77%
1.1°
7
Windvlaag: 2.1 m/s
53%
23:00
Voelt als: -0.7°
1002.1 hPa 2.0 mm
79%
1.6°
7
Windvlaag: 2.5 m/s
52%
 07:45     18:33    Daglengte: 10:48 Woensdag 26 Feb
00:00
Voelt als: -0.8°
1002.0 hPa 2.0 mm
75%
0.9°
7
Windvlaag: 2.6 m/s
61%
01:00
Voelt als: -1.5°
1001.6 hPa 2.2 mm
82%
0.6°
7
Windvlaag: 3.4 m/s
84%
02:00
Voelt als: -1.7°
1001.2 hPa 2.1 mm
82%
0.7°
8
Windvlaag: 3.2 m/s
81%
03:00
Voelt als: -1.9°
1001.0 hPa 2.3 mm
82%
0.8°
6
Windvlaag: 3.6 m/s
86% warningclass
04:00
Voelt als: -2.6°
1000.9 hPa 2.4 mm
100%
0.4°
7
Windvlaag: 3.4 m/s
88% warningclass
05:00
Voelt als: -2.7°
1000.8 hPa 2.6 mm
100%
0.8°
7
Windvlaag: 3.4 m/s
94%
06:00
Voelt als: -2.2°
1001.4 hPa 2.6 mm
95%
1.0°
6
Windvlaag: 2.5 m/s
96%1 cm
07:00
Voelt als: -2.3°
1001.8 hPa 2.6 mm
100%
0.7°
6
Windvlaag: 2 m/s
87%2 cm
08:00
Voelt als: -2.2°
1002.5 hPa 3.8 mm
86%
0.7°
6
Windvlaag: 0.6 m/s
76%2 cm
09:00
Voelt als: -1.2°
1003.7 hPa 3.6 mm
27%
1.3°
5
Windvlaag: 0.3 m/s
52%1 cm
10:00
Voelt als: 0.2°
1004.5 hPa
77%
0.8°
5
Windvlaag: 0.6 m/s
53%1 cm
11:00
Voelt als: 1.2°
1005.1 hPa 3.2 mm
100%
0.7°
6
Windvlaag: -0 m/s
53%1 cm
12:00
Voelt als: 1.6°
1005.9 hPa 2.6 mm
100%
0.6°
7
Windvlaag: -0.3 m/s
80%1 cm
13:00
Voelt als: 1.8°
1006.9 hPa 2.6 mm
100%
-0.4°
7
Windvlaag: -0.4 m/s
37%1 cm
14:00
Voelt als: 1.7°
1007.2 hPa 2.7 mm
100%
0.6°
8
Windvlaag: -0.7 m/s
42%1 cm
15:00
Voelt als: 2.6°
1007.5 hPa 2.6 mm
100%
-0.2°
8
Windvlaag: -0.6 m/s
38%1 cm
16:00
Voelt als: 1.8°
1007.9 hPa 2.7 mm
100%
0.1°
7
Windvlaag: -0.2 m/s
50%1 cm
17:00
Voelt als: 1.6°
1008.4 hPa 3.8 mm
89%
0.7°
7
Windvlaag: 0.6 m/s
52%1 cm
18:00
Voelt als: 1.4°
1008.9 hPa 3.7 mm
66%
-0.5°
6
Windvlaag: 0.7 m/s
19%1 cm
19:00
Voelt als: 1.1°
1009.7 hPa
21%
-1.4°
6
Windvlaag: 1.2 m/s
24%1 cm
20:00
Voelt als: 1.1°
1010.1 hPa
21%
-1.0°
5
Windvlaag: 3.6 m/s
15%1 cm
21:00
Voelt als: 1.1°
1010.2 hPa
22%
-0.8°
4
Windvlaag: 3.7 m/s
44%1 cm
22:00
Voelt als: 0.9°
1010.5 hPa
79%
-0.5°
4
Windvlaag: 4.3 m/s
60%1 cm
23:00
Voelt als: 0.5°
1010.6 hPa 5.5 mm
83%
-0.0°
4
Windvlaag: 4.2 m/s
69%1 cm
 07:43     18:34    Daglengte: 10:51 Donderdag 27 Feb
00:00
Voelt als: 0.4°
1010.5 hPa 5.5 mm
99%
0.4°
4
Windvlaag: 4.3 m/s
81%1 cm
01:00
Voelt als: 0.1°
1010.6 hPa 5.6 mm
100%
0.8°
4
Windvlaag: 2.3 m/s
90%1 cm
02:00
Voelt als: -0.4°
1010.5 hPa 5.6 mm
100%
0.8°
4
Windvlaag: 9.9 m/s
86%1 cm
03:00
Voelt als: -0.1°
1010.1 hPa 5.7 mm
100%
1.2°
4
Windvlaag: 9.6 m/s
95%1 cm
04:00
Voelt als: 0.2°
1009.6 hPa 5.6 mm
100%
1.7°
4
Windvlaag: 9.4 m/s
95%1 cm
05:00
Voelt als: 0.5°
1009.1 hPa 5.5 mm
97%
1.9°
4
Windvlaag: 9 m/s
99%1 cm
Temp/Neerslag /Baro Onweer/DauwpuntSneeuw
    Temp Baro Neerslag Dauwpunt Wind BewolkingSneeuw  
 07:49     18:29    Daglengte: 10:40 Vandaag
07:00
11°
1021.0 hPa   10.1°
5
91%
10:00
11°
1019.1 hPa   9.5°
6
90%
13:00
12°
1016.6 hPa   7.8°
7
77%
16:00
13°
1013.3 hPa   6.7°
8
87%
19:00
11°
1012.1 hPa 1.0 mm 7.2°
7
91%
22:00
10°
1010.9 hPa 2.9 mm 8.4°
6
91%
 07:47     18:31    Daglengte: 10:44 Morgen
01:00
10°
Voelt als: 7.3°
1009.2 hPa   8.2°
6
91%
04:00
Voelt als: 5.3°
1008.2 hPa 3.5 mm 6.2°
6
81%
07:00
Voelt als: 4.1°
1008.0 hPa   3.7°
5
56%
10:00
Voelt als: 4.2°
1007.5 hPa   3.5°
5
21%
13:00
Voelt als: 6.1°
1006.2 hPa   3.5°
7
71%
16:00
Voelt als: 4.2°
1003.7 hPa 4.1 mm 3.7°
7
58%
19:00
Voelt als: 2.0°
1002.2 hPa 3.8 mm 3.4°
7
83%
22:00
Voelt als: -0.3°
1002.1 hPa 3.6 mm 1.1°
7
53%
 07:45     18:33    Daglengte: 10:48 Woensdag 26 Feb
01:00
Voelt als: -1.5°
1001.6 hPa 6.2 mm 0.6°
7
84%
04:00
Voelt als: -2.6°
1000.9 hPa 6.9 mm 0.4°
7
88% warningclass
07:00
Voelt als: -2.3°
1001.8 hPa 7.8 mm 0.7°
6
87%2 cm
10:00
Voelt als: 0.2°
1004.5 hPa 7.4 mm 0.8°
5
53%1 cm
13:00
Voelt als: 1.8°
1006.9 hPa 8.4 mm -0.4°
7
37%1 cm
16:00
Voelt als: 1.8°
1007.9 hPa 8.0 mm 0.1°
7
50%1 cm
19:00
Voelt als: 1.1°
1009.7 hPa 7.4 mm -1.4°
6
24%1 cm
22:00
Voelt als: 0.9°
1010.5 hPa   -0.5°
4
60%1 cm
 07:43     18:34    Daglengte: 10:51 Donderdag 27 Feb
01:00
Voelt als: 0.1°
1010.6 hPa 16.6 mm 0.8°
4
90%1 cm
04:00
Voelt als: 0.2°
1009.6 hPa 16.9 mm 1.7°
4
95%1 cm
07:00
Voelt als: 0.4°
1008.3 hPa 17.1 mm 2.3°
3
98%1 cm
10:00
Voelt als: 1.0°
1005.9 hPa 21.9 mm 2.9°
4
92%
13:00
Voelt als: 2.0°
1004.5 hPa 26.9 mm 3.7°
4
92%
16:00
Voelt als: 2.3°
1003.4 hPa 28.5 mm 3.8°
3
90%
19:00
Voelt als: 2.7°
1002.4 hPa 28.8 mm 3.8°
2
89%
22:00
Voelt als: 1.9°
1004.1 hPa 29.0 mm 3.2°
2
90%
 07:41     18:36    Daglengte: 10:55 Vrijdag 28 Feb
01:00
Voelt als: 1.4°
1005.9 hPa 29.2 mm 2.9°
2
91%
04:00
Voelt als: 1.5°
1005.2 hPa 29.3 mm 3.1°
2
91%
07:00
Voelt als: 1.8°
1004.5 hPa 29.4 mm 3.5°
3
92%
10:00
Voelt als: 4.8°
1002.2 hPa 29.6 mm 6.1°
4
92%
13:00
10°
Voelt als: 7.8°
999.8 hPa 30.2 mm 8.6°
4
92%
16:00
10°
Voelt als: 7.3°
998.8 hPa 32.8 mm 8.6°
5
91%
19:00
10°
997.7 hPa 38.9 mm 8.9°
6
90%
22:00
Voelt als: 6.0°
996.9 hPa 39.0 mm 7.4°
7
69%
 07:39     18:37    Daglengte: 10:58 Zaterdag 29 Feb
01:00
Voelt als: 4.9°
996.3 hPa 39.1 mm 5.9°
6
47%
04:00
Voelt als: 2.5°
995.1 hPa 40.3 mm 4.4°
7
56%
07:00
Voelt als: -0.1°
994.2 hPa 40.6 mm 2.7°
8
65%
10:00
Voelt als: 0.7°
995.5 hPa 41.0 mm 1.5°
9
43%
13:00
Voelt als: 1.7°
996.6 hPa 41.6 mm 0.3°
9
22%
16:00
Voelt als: 0.8°
995.8 hPa 41.9 mm 1.3°
9
34%
19:00
Voelt als: -0.1°
994.7 hPa 46.6 mm 2.0°
8
47%
22:00
Voelt als: -0.5°
995.6 hPa 58.2 mm 2.0°
8
61%
 07:37     18:39    Daglengte: 11:02 Zondag 01 Maa
01:00
Voelt als: -0.9°
997.0 hPa 59.1 mm 1.9°
8
75%
04:00
Voelt als: -0.6°
997.8 hPa 59.6 mm 2.0°
7
83%
07:00
Voelt als: -0.5°
998.5 hPa 59.8 mm 2.1°
6
92%
10:00
Voelt als: 2.1°
1000.8 hPa 59.9 mm 1.6°
5
60%
13:00
Voelt als: 4.6°
1003.1 hPa 60.4 mm 0.5°
4
28%
16:00
Voelt als: 3.8°
1004.9 hPa 61.0 mm 0.2°
3
43%
19:00
Voelt als: 2.5°
1007.0 hPa 63.7 mm -0.0°
3
59%
22:00
Voelt als: 1.0°
1008.4 hPa 63.9 mm 0.4°
3
43%
 07:35     18:41    Daglengte: 11:06 Maandag 02 Maa
01:00
Voelt als: -0.3°
1009.7 hPa 63.9 mm 0.7°
2
28%
04:00
Voelt als: -0.9°
1009.8 hPa   0.2°
2
26%
07:00
Voelt als: -1.5°
1009.9 hPa 127.9 mm -0.4°
2
24% warningclass
13:00
Voelt als: 6.0°
1007.6 hPa 127.9 mm 0.2°
5
92%
19:00
Voelt als: 4.2°
1003.5 hPa 127.9 mm 0.6°
3
90%
 07:33     18:42    Daglengte: 11:09 Dinsdag 03 Maa
01:00
Voelt als: 0.5°
1004.7 hPa 127.9 mm -0.1°
2
92%
07:00
Voelt als: 1.3°
1007.6 hPa 127.9 mm -0.9°
2
92%
13:00
10°
Voelt als: 6.9°
1009.4 hPa 127.9 mm 1.6°
5
87%
19:00
Voelt als: 4.5°
1005.9 hPa 127.9 mm 1.9°
5
69%
 07:31     18:44    Daglengte: 11:13 Woensdag 04 Maa
01:00
Voelt als: 1.1°
996.3 hPa 127.9 mm 3.4°
7
92%
07:00
Voelt als: 3.0°
991.0 hPa 129.7 mm 4.7°
5
82%
13:00
Voelt als: 4.4°
993.6 hPa 141.9 mm 5.6°
8
1%
19:00
Voelt als: 0.7°
992.4 hPa 146.6 mm 2.8°
7
1%
 07:29     18:45    Daglengte: 11:16 Donderdag 05 Maa
01:00
Voelt als: 2.3°
1009.4 hPa 1.6 mm 3.4°
7
71%
07:00
Voelt als: 2.5°
1010.8 hPa 1.6 mm 3.4°
6
67%
13:00
Voelt als: 6.0°
1012.7 hPa 1.1 mm 4.7°
7
63%
19:00
Voelt als: 4.8°
1012.7 hPa 0.9 mm 4.9°
6
60%
 07:27     18:47    Daglengte: 11:20 Vrijdag 06 Maa
01:00
Voelt als: 3.7°
1014.1 hPa 0.8 mm 4.6°
6
65%
07:00
Voelt als: 3.3°
1013.0 hPa 1.1 mm 4.5°
5
75%
13:00
10°
Voelt als: 7.0°
1013.9 hPa 0.7 mm 5.8°
7
76%
19:00
Voelt als: 5.3°
1013.4 hPa 1.1 mm 5.2°
5
72%
 07:25     18:49    Daglengte: 11:24 Zaterdag 07 Maa
01:00
Voelt als: 3.6°
1014.0 hPa 0.8 mm 4.5°
5
56%
07:00
Voelt als: 3.5°
1012.8 hPa 0.5 mm 4.4°
5
61%
13:00
10°
Voelt als: 7.2°
1013.3 hPa 0.7 mm 5.5°
6
70%
19:00
Voelt als: 5.9°
1013.3 hPa 0.7 mm 4.9°
4
59%
 07:23     18:50    Daglengte: 11:27 Zondag 08 Maa
01:00
Voelt als: 4.2°
1014.3 hPa 0.4 mm 4.3°
4
49%
07:00
Voelt als: 3.8°
1014.8 hPa 0.5 mm 3.8°
3
52%
13:00
Voelt als: 7.3°
1016.0 hPa 0.9 mm 4.2°
3
63%
19:00
Voelt als: 5.5°
1015.2 hPa 1.0 mm 3.5°
2
58%
 07:21     18:52    Daglengte: 11:31 Maandag 09 Maa
01:00
Voelt als: 3.7°
1016.0 hPa 0.6 mm 2.6°
2
54%
07:00
Voelt als: 3.2°
1015.4 hPa 0.7 mm 2.5°
2
50%
13:00
Voelt als: 6.9°
1016.1 hPa 0.6 mm 3.8°
3
54%
19:00
Voelt als: 5.2°
1015.7 hPa 0.6 mm 3.9°
3
62%
 07:18     18:53    Daglengte: 11:35 Dinsdag 10 Maa
01:00
Voelt als: 3.2°
1016.4 hPa 0.6 mm 3.4°
3
55%
  CAPE Lifted Index Hail Supercell Tornado SRH 3km CL BTM PRES CL TOP PRES Swiss DWD icon SMHI TS
 07:49     18:29    Daglengte: 10:40 Vandaag
06:00 2 J/kg 5.1 K 0 % 0 % 0 % 0 m²/s² 0 0 10.14 3
07:00 1 J/kg 5.0 K 0 % 0 % 0 % 0 m²/s² 0 0 11.27 3
08:00 3 J/kg 5.7 K 0 % 0 % 0 % 0 m²/s² 0 0 12.36 3
09:00 4 J/kg 8.1 K 0 % 0 % 0 % 0 m²/s² 0 0 14.97 3
10:00 4 J/kg 9.6 K 0 % 0 % 0 % 0 m²/s² 0 0 16.95 3
11:00 4 J/kg 8.9 K 0 % 0 % 0 % 0 m²/s² 0 0 16.49 3
12:00 5 J/kg 9.8 K 0 % 0 % 0 % 0 m²/s² 0 0 17.99 3
13:00 6 J/kg 9.4 K 0 % 0 % 0 % 0 m²/s² 0 0 16.99 3
14:00 5 J/kg 8.9 K 0 % 0 % 0 % 0 m²/s² 0 0 16.49 3
15:00 7 J/kg 8.9 K 0 % 0 % 0 % 0 m²/s² 0 0 16.19 3
16:00 8 J/kg 8.7 K 0 % 0 % 0 % 0 m²/s² 0 0 15.99 3
17:00 4 J/kg 8.0 K 0 % 0 % 0 % 0 m²/s² 0 0 15.53 3
18:00 2 J/kg 7.2 K 0 % 0 % 0 % 0 m²/s² 0 0 12.3 3
19:00 2 J/kg 6.7 K 0 % 0 % 0 % 0 m²/s² 0 0 7.51 61
20:00 0 J/kg 6.7 K 0 % 0 % 0 % 0 m²/s² 0 0 6.91 61
21:00 0 J/kg 7.2 K 0 % 0 % 0 % 0 m²/s² 0 0 8.67 61
22:00 2 J/kg 7.0 K 0 % 0 % 0 % 0 m²/s² 0 0 9.82 61
23:00 30 J/kg 6.4 K 0 % 0 % 0 % 0 m²/s² 0 0 12.49 3
 07:47     18:31    Daglengte: 10:44 Morgen
00:00 34 J/kg 6.4 K 0 % 0 % 0 % 0 m²/s² 0 0 15.01 3
01:00 12 J/kg 7.6 K 0 % 0 % 0 % 0 m²/s² 0 0 17.47 61
02:00 22 J/kg 7.6 K 0 % 0 % 0 % 0 m²/s² 0 0 17.41 61
03:00 22 J/kg 8.0 K 0 % 0 % 0 % 0 m²/s² 0 0 16.91 61
04:00 39 J/kg 8.1 K 0 % 0 % 0 % 0 m²/s² 0 0 16.26 61
05:00 51 J/kg 8.6 K 0 % 0 % 0 % 0 m²/s² 0 0 16.4 3
06:00 37 J/kg 9.1 K 0 % 0 % 0 % 0 m²/s² 0 0 16.6 3
07:00 35 J/kg 9.2 K 0 % 0 % 0 % 0 m²/s² 0 0 16.37 2
08:00 14 J/kg 8.4 K 0 % 0 % 0 % 0 m²/s² 0 0 15.09 3
09:00 81 J/kg 8.0 K 0 % 0 % 0 % 0 m²/s² 0 0 14.03 3
10:00 43 J/kg 8.3 K 0 % 0 % 0 % 0 m²/s² 0 0 13.91 2
11:00 82 J/kg 7.3 K 0 % 0 % 0 % 0 m²/s² 0 0 12.01 2
12:00 106 J/kg 6.7 K 0 % 0 % 0 % 0 m²/s² 0 0 9.04 2
13:00 154 J/kg 5.8 K 0 % 0 % 0 % 0 m²/s² 0 0 7.24 3
14:00 171 J/kg 4.7 K 0 % 0 % 0 % 0 m²/s² 0 0 6.83 80
15:00 168 J/kg 4.3 K 0 % 0 % 0 % 0 m²/s² 0 0 6.07 80
16:00 149 J/kg 3.3 K 0 % 0 % 0 % 0 m²/s² 0 0 4.8 2
17:00 131 J/kg 2.2 K 0 % 0 % 0 % 0 m²/s² 0 0 4.09 2
18:00 155 J/kg 1.4 K 0 % 0 % 0 % 0 m²/s² 0 0 2.84 2
19:00 53 J/kg 1.3 K 0 % 0 % 0 % 0 m²/s² 0 0 2.44 80
20:00 5 J/kg 3.3 K 0 % 0 % 0 % 0 m²/s² 0 0 3.72 80
21:00 9 J/kg 2.9 K 0 % 0 % 0 % 0 m²/s² 0 0 5.51 80
22:00 2 J/kg 3.6 K 0 % 0 % 0 % 0 m²/s² 0 0 4.71 3
23:00 98 J/kg 1.3 K 0 % 0 % 0 % 0 m²/s² 0 0 3.73 80
 07:45     18:33    Daglengte: 10:48 Woensdag 26 Feb
00:00 0 J/kg 1.9 K 0 % 0 % 0 % 0 m²/s² 0 0 4.51 80
01:00 47 J/kg 1.3 K 0 % 0 % 0 % 0 m²/s² 0 0 2.86 85
02:00 109 J/kg 1.0 K 0 % 0 % 0 % 0 m²/s² 0 0 2.71 85
03:00 181 J/kg -0.6 K 0 % 0 % 0 % 0 m²/s² 0 0 0.9 95
04:00 75 J/kg 1.5 K 0 % 0 % 0 % 0 m²/s² 0 0 4.44 95
05:00 0 J/kg -0.5 K 0 % 0 % 0 % 0 m²/s² 0 0 1.9 85
06:00 189 J/kg -1.0 K 0 % 0 % 0 % 0 m²/s² 0 0 0.26 85
07:00 180 J/kg -0.6 K 0 % 0 % 0 % 0 m²/s² 0 0 1.26 85
08:00 82 J/kg 0.3 K 0 % 0 % 0 % 0 m²/s² 0 0 1.56 85
09:00 147 J/kg 0.4 K 0 % 0 % 0 % 0 m²/s² 0 0 2.08 1
10:00 150 J/kg 0.6 K 0 % 0 % 0 % 0 m²/s² 0 0 3.93 2
11:00 241 J/kg 0.6 K 0 % 0 % 0 % 0 m²/s² 0 0 4.26 80
12:00 193 J/kg 1.3 K 0 % 0 % 0 % 0 m²/s² 0 0 3.04 80
13:00 198 J/kg 1.9 K 0 % 0 % 0 % 0 m²/s² 0 0 3.97 80
14:00 124 J/kg 3.7 K 0 % 0 % 0 % 0 m²/s² 0 0 5.62 80
15:00 106 J/kg 5.0 K 0 % 0 % 0 % 0 m²/s² 0 0 8.33 80
16:00 106 J/kg 5.6 K 0 % 0 % 0 % 0 m²/s² 0 0 9.38 2
17:00 80 J/kg 6.5 K 0 % 0 % 0 % 0 m²/s² 0 0 9.74 2
18:00 36 J/kg 8.0 K 0 % 0 % 0 % 0 m²/s² 0 0 10.88 2
19:00 3 J/kg 9.3 K 0 % 0 % 0 % 0 m²/s² 0 0 11.34 2
20:00 0 J/kg 10.0 K 0 % 0 % 0 % 0 m²/s² 0 0 12.01 1
21:00 0 J/kg 9.9 K 0 % 0 % 0 % 0 m²/s² 0 0 11.97 2
22:00 15 J/kg 9.4 K 0 % 0 % 0 % 0 m²/s² 0 0 11.74 2
23:00 44 J/kg 9.8 K 0 % 0 % 0 % 0 m²/s² 0 0 12.38 3
 07:43     18:34    Daglengte: 10:51 Donderdag 27 Feb
00:00 18 J/kg 10.0 K 0 % 0 % 0 % 0 m²/s² 0 0 12.52 80
01:00 4 J/kg 10.2 K 0 % 0 % 0 % 0 m²/s² 0 0 12.54 80
02:00 0 J/kg 10.5 K 0 % 0 % 0 % 0 m²/s² 0 0 12.36 80
03:00 0 J/kg 10.9 K 0 % 0 % 0 % 0 m²/s² 0 0 12.16 61
04:00 0 J/kg 11.6 K 0 % 0 % 0 % 0 m²/s² 0 0 12.11 80
05:00 0 J/kg 11.1 K 0 % 0 % 0 % 0 m²/s² 0 0 11.55 3
Temp Baro Wind Neerslag
  EWN Forecast EWN WRFDA DWD ICON FMI HIRLAM MET Norway GFS
 07:49     18:29    Daglengte: 10:40 Vandaag
07:00 11.2° 1021.0 hPa 5.2 m/s 0.0 mm 11.0° 1019.2 hPa 5.5 m/s 2.6 mm 11.7° 1021.0 hPa 4.1 m/s -1.1 mm 11.6° 1021.1 hPa 6.2 m/s 0.0 mm 10.7° 1021.4 hPa 5.1 m/s 11.8° 1020.5 hPa 6.3 m/s
10:00 11.3° 1019.1 hPa 5.8 m/s 0.0 mm 10.6° 1017.4 hPa 7.4 m/s 4.0 mm 11.8° 1019.2 hPa 5.4 m/s 0.0 mm 11.5° 1019.1 hPa 7.9 m/s 0.0 mm 10.9° 1019.4 hPa 5.3 m/s 11.7° 1018.9 hPa 8.1 m/s
13:00 12.4° 1016.6 hPa 7.5 m/s 0.0 mm 12.9° 1014.8 hPa 9.6 m/s 4.1 mm 11.9° 1016.8 hPa 6.4 m/s 0.0 mm 12.6° 1016.6 hPa 9.5 m/s 0.0 mm 12.2° 1017.0 hPa 7.2 m/s 12.8° 1016.8 hPa 9.4 m/s
16:00 12.7° 1013.3 hPa 8.3 m/s 0.0 mm 13.7° 1011.5 hPa 9.5 m/s 4.2 mm 11.6° 1014.0 hPa 5.8 m/s 0.1 mm 12.7° 1013.4 hPa 9.3 m/s 0.0 mm 12.6° 1013.6 hPa 8.4 m/s 12.8° 1013.3 hPa 9.5 m/s
19:00 11.3° 1012.1 hPa 6.6 m/s 1.0 mm 11.4° 1010.6 hPa 7.2 m/s 5.2 mm 10.5° 1012.7 hPa 5.0 m/s 0.3 mm 11.4° 1012.3 hPa 7.4 m/s 0.0 mm 11.4° 1012.1 hPa 6.7 m/s 10.9° 1011.9 hPa 8.3 m/s
22:00 10.4° 1010.9 hPa 6.2 m/s 2.9 mm 10.6° 1009.0 hPa 7.8 m/s 10.8 mm 9.9° 1011.0 hPa 4.7 m/s 0.8 mm 11.5° 1011.0 hPa 7.1 m/s 0.0 mm 10.0° 1010.6 hPa 6.3 m/s 10.7° 1011.0 hPa 8.2 m/s
 07:47     18:31    Daglengte: 10:44 Morgen
01:00 10.0° 1009.2 hPa 5.7 m/s 0.0 mm 9.4° 1008.7 hPa 5.9 m/s 12.6 mm 10.0° 1009.7 hPa 4.2 m/s 0.1 mm 11.5° 1008.7 hPa 8.1 m/s 0.0 mm 9.9° 1009.0 hPa 5.5 m/s 9.3° 1010.6 hPa 6.7 m/s
04:00 8.4° 1008.2 hPa 5.9 m/s 3.5 mm 8.2° 1007.0 hPa 5.2 m/s 13.0 mm 9.1° 1008.3 hPa 4.9 m/s 1.3 mm 9.3° 1007.7 hPa 8.1 m/s 0.0 mm 8.1° 1008.1 hPa 5.8 m/s 7.9° 1008.9 hPa 6.0 m/s
07:00 7.0° 1008.0 hPa 4.5 m/s 0.0 mm 6.9° 1006.5 hPa 5.7 m/s 13.9 mm 7.3° 1008.7 hPa 4.2 m/s 0.1 mm 8.0° 1007.3 hPa 3.9 m/s 0.0 mm 6.5° 1008.0 hPa 4.5 m/s 7.2° 1008.9 hPa 5.4 m/s
10:00 7.4° 1007.5 hPa 5.2 m/s 0.0 mm 8.2° 1006.3 hPa 5.9 m/s 15.4 mm 7.5° 1008.6 hPa 4.6 m/s 0.2 mm 8.4° 1006.6 hPa 6.0 m/s 0.0 mm 7.0° 1007.4 hPa 5.2 m/s 7.1° 1008.3 hPa 5.5 m/s
13:00 9.3° 1006.2 hPa 6.5 m/s 0.0 mm 9.8° 1005.0 hPa 7.4 m/s 16.0 mm 9.0° 1007.8 hPa 5.6 m/s 0.1 mm 9.3° 1005.1 hPa 8.0 m/s 0.0 mm 9.2° 1006.2 hPa 6.6 m/s 8.4° 1007.2 hPa 8.0 m/s
16:00 7.9° 1003.7 hPa 7.4 m/s 4.1 mm 9.6° 1001.9 hPa 9.3 m/s 17.8 mm 8.4° 1005.6 hPa 6.3 m/s 0.9 mm 9.2° 1002.9 hPa 8.4 m/s 0.0 mm 6.6° 1004.2 hPa 7.4 m/s 7.3° 1004.2 hPa 8.3 m/s
19:00 6.2° 1002.2 hPa 7.2 m/s 3.8 mm 6.6° 999.7 hPa 4.6 m/s 20.4 mm 6.9° 1003.8 hPa 5.7 m/s 0.5 mm 7.5° 1000.8 hPa 8.7 m/s 0.0 mm 5.1° 1002.6 hPa 8.0 m/s 6.2° 1001.9 hPa 7.8 m/s
22:00 4.5° 1002.1 hPa 7.3 m/s 3.6 mm 3.9° 998.6 hPa 5.1 m/s 29.2 mm 4.5° 1002.9 hPa 6.4 m/s 1.3 mm 5.2° 1000.4 hPa 9.9 m/s 0.0 mm 4.0° 1002.5 hPa 7.9 m/s 4.6° 1001.1 hPa 9.0 m/s
 07:45     18:33    Daglengte: 10:48 Woensdag 26 Feb
01:00 3.5° 1001.6 hPa 7.2 m/s 6.2 mm 3.3° 999.0 hPa 7.3 m/s 36.6 mm 3.3° 1002.3 hPa 5.9 m/s 1.0 mm 4.4° 999.7 hPa 7.7 m/s 0.0 mm 3.0° 1001.8 hPa 7.6 m/s 3.1° 1001.7 hPa 9.2 m/s
04:00 2.6° 1000.9 hPa 7.1 m/s 6.9 mm 2.2° 999.0 hPa 8.1 m/s 38.5 mm 2.1° 1002.1 hPa 6.0 m/s 2.3 mm 2.5° 1000.7 hPa 7.4 m/s 2.4° 1001.7 hPa 9.1 m/s
07:00 2.6° 1001.8 hPa 6.3 m/s 7.8 mm 2.8° 999.6 hPa 7.2 m/s 43.4 mm 2.5° 1003.6 hPa 4.4 m/s 0.7 mm 2.0° 1001.7 hPa 6.8 m/s 3.0° 1003.1 hPa 7.3 m/s
10:00 4.0° 1004.5 hPa 4.7 m/s 7.4 mm 5.5° 1003.5 hPa 9.4 m/s 46.8 mm 4.4° 1006.1 hPa 4.0 m/s 0.1 mm 3.8° 1004.3 hPa 4.6 m/s 4.7° 1006.8 hPa 7.7 m/s
13:00 6.1° 1006.9 hPa 7.4 m/s 8.4 mm 5.8° 1007.0 hPa 10.5 m/s 47.4 mm 6.1° 1007.2 hPa 7.1 m/s 1.0 mm 6.4° 1006.4 hPa 7.2 m/s 6.2° 1009.9 hPa 10.7 m/s
16:00 6.1° 1007.9 hPa 7.3 m/s 8.0 mm 6.8° 1008.6 hPa 9.9 m/s 48.4 mm 6.8° 1007.8 hPa 7.2 m/s 1.0 mm 5.9° 1007.5 hPa 7.3 m/s 6.1° 1010.9 hPa 10.0 m/s
19:00 5.1° 1009.7 hPa 5.7 m/s 7.4 mm 5.3° 1010.2 hPa 6.0 m/s 48.4 mm 5.5° 1009.8 hPa 5.1 m/s 0.1 mm 5.1° 1009.2 hPa 6.1 m/s 3.4° 1012.6 hPa 5.2 m/s
22:00 4.1° 1010.5 hPa 3.9 m/s 0.0 mm 4.9° 1011.0 hPa 2.4 m/s 48.4 mm 4.2° 1010.9 hPa 3.2 m/s 0.0 mm 4.2° 1010.0 hPa 5.4 m/s 2.1° 1014.2 hPa 3.3 m/s
 07:43     18:34    Daglengte: 10:51 Donderdag 27 Feb
01:00 3.7° 1010.6 hPa 4.4 m/s 16.6 mm 3.9° 1010.6 hPa 4.8 m/s 48.4 mm 4.1° 1010.5 hPa 3.0 m/s 0.6 mm 3.2° 1010.8 hPa 4.7 m/s 2.1° 1014.0 hPa 3.9 m/s
04:00 3.6° 1009.6 hPa 4.0 m/s 16.9 mm 4.0° 1008.7 hPa 6.0 m/s 48.4 mm 4.2° 1009.5 hPa 2.3 m/s 1.1 mm 3.2° 1009.8 hPa 4.0 m/s 2.9° 1012.1 hPa 4.1 m/s
07:00 3.5° 1008.3 hPa 3.4 m/s 17.1 mm 3.7° 1005.2 hPa 5.5 m/s 49.9 mm 4.1° 1008.4 hPa 1.9 m/s 0.7 mm 3.1° 1008.9 hPa 3.4 m/s 3.5° 1007.9 hPa 6.0 m/s
10:00 4.4° 1005.9 hPa 4.2 m/s 21.9 mm 4.2° 1006.4 hPa 3.8 m/s 5.8° 1001.3 hPa 8.3 m/s 21.9 mm
13:00 5.3° 1004.5 hPa 4.4 m/s 26.9 mm 4.8° 1005.1 hPa 4.0 m/s 10.3° 998.2 hPa 9.0 m/s 26.9 mm
16:00 5.1° 1003.4 hPa 3.4 m/s 28.5 mm 4.5° 1003.9 hPa 3.0 m/s 11.0° 997.5 hPa 8.6 m/s 28.5 mm
19:00 4.8° 1002.4 hPa 2.5 m/s 28.8 mm 4.3° 1002.7 hPa 1.9 m/s 10.5° 998.8 hPa 8.9 m/s 28.8 mm
22:00 4.0° 1004.1 hPa 2.3 m/s 29.0 mm 3.5° 1004.4 hPa 1.6 m/s 9.1° 1001.6 hPa 9.5 m/s 29.0 mm
 07:41     18:36    Daglengte: 10:55 Vrijdag 28 Feb
01:00 3.3° 1005.9 hPa 2.0 m/s 29.2 mm 2.8° 1006.0 hPa 1.4 m/s 8.4° 1004.4 hPa 8.1 m/s 29.2 mm
04:00 3.8° 1005.2 hPa 2.4 m/s 29.3 mm 3.5° 1005.1 hPa 2.1 m/s 6.2° 1006.4 hPa 6.0 m/s 29.3 mm
07:00 4.4° 1004.5 hPa 2.9 m/s 29.4 mm 4.3° 1004.2 hPa 2.8 m/s 5.3° 1008.0 hPa 4.2 m/s 29.4 mm
10:00 7.3° 1002.2 hPa 3.7 m/s 29.6 mm 7.2° 1001.7 hPa 3.4 m/s 8.0° 1008.7 hPa 6.3 m/s 29.6 mm
13:00 9.9° 999.8 hPa 4.2 m/s 30.2 mm 10.1° 999.1 hPa 4.1 m/s 8.2° 1007.1 hPa 5.5 m/s 30.2 mm
16:00 9.8° 998.8 hPa 5.2 m/s 32.8 mm 10.1° 998.6 hPa 5.2 m/s 7.0° 1001.0 hPa 6.3 m/s 32.8 mm
19:00 10.1° 997.7 hPa 6.5 m/s 38.9 mm 10.1° 998.1 hPa 6.2 m/s 10.5° 993.8 hPa 9.5 m/s 38.9 mm
22:00 9.2° 996.9 hPa 6.8 m/s 39.0 mm 9.2° 997.2 hPa 6.2 m/s 9.2° 993.5 hPa 13.7 m/s 39.0 mm
 07:39     18:37    Daglengte: 10:58 Zaterdag 29 Feb
01:00 8.2° 996.3 hPa 6.1 m/s 39.1 mm 8.3° 996.4 hPa 6.1 m/s 6.6° 995.7 hPa 5.8 m/s 39.1 mm
04:00 6.6° 995.1 hPa 7.4 m/s 40.3 mm 6.6° 995.1 hPa 7.0 m/s 7.4° 994.5 hPa 11.5 m/s 40.3 mm
07:00 4.8° 994.2 hPa 8.1 m/s 40.6 mm 4.8° 993.9 hPa 8.0 m/s 4.8° 996.9 hPa 9.1 m/s 40.6 mm
10:00 5.6° 995.5 hPa 8.7 m/s 41.0 mm 5.6° 995.0 hPa 8.7 m/s 5.7° 1000.9 hPa 9.1 m/s 41.0 mm
13:00 6.5° 996.6 hPa 9.4 m/s 41.6 mm 6.4° 996.1 hPa 9.4 m/s 7.5° 1001.8 hPa 9.2 m/s 41.6 mm
16:00 5.6° 995.8 hPa 8.7 m/s 41.9 mm 5.6° 995.5 hPa 8.9 m/s 6.4° 998.8 hPa 7.0 m/s 41.9 mm
19:00 4.8° 994.7 hPa 7.9 m/s 46.6 mm 4.7° 994.9 hPa 8.3 m/s 5.4° 992.6 hPa 2.9 m/s 46.6 mm
22:00 4.5° 995.6 hPa 7.9 m/s 58.2 mm 4.5° 996.2 hPa 8.2 m/s 4.6° 988.8 hPa 4.1 m/s 58.2 mm
 07:37     18:39    Daglengte: 11:02 Zondag 01 Maa
01:00 4.2° 997.0 hPa 8.0 m/s 59.1 mm 4.2° 997.5 hPa 8.1 m/s 3.7° 991.7 hPa 7.1 m/s 59.1 mm
04:00 4.1° 997.8 hPa 7.0 m/s 59.6 mm 4.2° 998.1 hPa 7.2 m/s 2.9° 994.8 hPa 4.7 m/s 59.6 mm
07:00 4.0° 998.5 hPa 6.2 m/s 59.8 mm 4.2° 998.7 hPa 6.3 m/s 1.7° 995.9 hPa 4.6 m/s 59.8 mm
10:00 5.7° 1000.8 hPa 5.3 m/s 59.9 mm 5.9° 1001.2 hPa 5.2 m/s 4.0° 996.6 hPa 5.9 m/s 59.9 mm
13:00 7.3° 1003.1 hPa 4.2 m/s 60.4 mm 7.6° 1003.7 hPa 4.1 m/s 4.5° 996.6 hPa 5.0 m/s 60.4 mm
16:00 6.3° 1004.9 hPa 3.5 m/s 61.0 mm 6.3° 1005.7 hPa 3.5 m/s 6.3° 997.0 hPa 2.4 m/s 61.0 mm
19:00 5.0° 1007.0 hPa 3.0 m/s 63.7 mm 5.1° 1007.6 hPa 3.0 m/s 4.0° 999.8 hPa 2.7 m/s 63.7 mm
22:00 3.5° 1008.4 hPa 2.7 m/s 63.9 mm 3.7° 1008.8 hPa 2.6 m/s 1.5° 1003.9 hPa 2.8 m/s 63.9 mm
 07:35     18:41    Daglengte: 11:06 Maandag 02 Maa
01:00 2.2° 1009.7 hPa 2.3 m/s 63.9 mm 2.3° 1010.0 hPa 2.3 m/s 1.0° 1006.4 hPa 2.7 m/s 63.9 mm
04:00 1.5° 1009.8 hPa 2.2 m/s 63.9 mm 1.5° 1010.0 hPa 2.2 m/s 0.8° 1008.1 hPa 1.8 m/s 63.9 mm
07:00 0.7° 1009.9 hPa 2.0 m/s 63.9 mm 0.8° 1010.0 hPa 2.1 m/s 0.1° 1008.9 hPa 0.4 m/s 63.9 mm
13:00 8.7° 1007.6 hPa 4.9 m/s 64.0 mm 8.9° 1007.5 hPa 4.9 m/s 6.1° 1008.5 hPa 4.4 m/s 64.0 mm
19:00 6.2° 1003.5 hPa 2.8 m/s 64.0 mm 6.5° 1003.3 hPa 2.5 m/s 3.4° 1005.8 hPa 5.7 m/s 64.0 mm
 07:33     18:42    Daglengte: 11:09 Dinsdag 03 Maa
01:00 2.7° 1004.7 hPa 2.2 m/s 64.0 mm 2.8° 1004.8 hPa 1.7 m/s 2.0° 1003.5 hPa 7.5 m/s 64.0 mm
07:00 3.6° 1007.6 hPa 2.5 m/s 64.0 mm 3.9° 1007.8 hPa 2.1 m/s 0.4° 1005.5 hPa 6.9 m/s 64.0 mm
13:00 9.6° 1009.4 hPa 5.5 m/s 64.0 mm 10.0° 1009.1 hPa 5.4 m/s 4.8° 1012.7 hPa 6.5 m/s 64.0 mm
19:00 7.4° 1005.9 hPa 4.5 m/s 64.0 mm 8.0° 1005.0 hPa 4.7 m/s 0.6° 1016.0 hPa 2.5 m/s 64.0 mm
 07:31     18:44    Daglengte: 11:13 Woensdag 04 Maa
01:00 5.4° 996.3 hPa 6.7 m/s 64.0 mm 5.9° 994.7 hPa 7.0 m/s -0.4° 1014.5 hPa 3.2 m/s 64.0 mm
07:00 6.4° 991.0 hPa 5.1 m/s 65.7 mm 6.9° 990.0 hPa 4.7 m/s 0.4° 1001.8 hPa 9.9 m/s 65.7 mm
13:00 8.2° 993.6 hPa 7.8 m/s 71.6 mm 8.2° 993.6 hPa 7.8 m/s 71.6 mm
19:00 5.1° 992.4 hPa 7.0 m/s 73.8 mm 5.1° 992.4 hPa 7.0 m/s 73.8 mm
 07:29     18:45    Daglengte: 11:16 Donderdag 05 Maa
01:00 6.4° 1009.4 hPa 7.1 m/s 1.6 mm
07:00 6.2° 1010.8 hPa 5.9 m/s 1.6 mm
13:00 9.4° 1012.7 hPa 7.5 m/s 1.1 mm
19:00 8.1° 1012.7 hPa 6.2 m/s 0.9 mm
 07:27     18:47    Daglengte: 11:20 Vrijdag 06 Maa
01:00 7.1° 1014.1 hPa 5.8 m/s 0.8 mm
07:00 6.7° 1013.0 hPa 5.3 m/s 1.1 mm
13:00 10.0° 1013.9 hPa 6.7 m/s 0.7 mm
19:00 8.2° 1013.4 hPa 5.3 m/s 1.1 mm
 07:25     18:49    Daglengte: 11:24 Zaterdag 07 Maa
01:00 6.9° 1014.0 hPa 5.3 m/s 0.8 mm
07:00 6.6° 1012.8 hPa 4.6 m/s 0.5 mm
13:00 9.9° 1013.3 hPa 5.6 m/s 0.7 mm
19:00 8.3° 1013.3 hPa 3.9 m/s 0.7 mm
 07:23     18:50    Daglengte: 11:27 Zondag 08 Maa
01:00 7.0° 1014.3 hPa 4.1 m/s 0.4 mm
07:00 6.2° 1014.8 hPa 3.2 m/s 0.5 mm
13:00 9.1° 1016.0 hPa 3.2 m/s 0.9 mm
19:00 7.1° 1015.2 hPa 2.3 m/s 1.0 mm
 07:21     18:52    Daglengte: 11:31 Maandag 09 Maa
01:00 5.3° 1016.0 hPa 2.0 m/s 0.6 mm
07:00 4.8° 1015.4 hPa 2.0 m/s 0.7 mm
13:00 8.6° 1016.1 hPa 2.8 m/s 0.6 mm
19:00 7.2° 1015.7 hPa 3.0 m/s 0.6 mm
 07:18     18:53    Daglengte: 11:35 Dinsdag 10 Maa
01:00 5.8° 1016.4 hPa 3.3 m/s 0.6 mm
FMI Hirlam - 7.5 km EWN WRFDA - 12 km DWD ICON - 7 km GFS - 25 km Basiskaart






























































Updatetijd (Europe/Brussels) Resolutie Lengte Stap
FMI Hirlam 00:45, 06:45, 12:45, 18:45 7.5 km 49h 1h
EWN WRFDA 02:15, 08:15, 14:15, 20:15 12 km 73h 1h
DWD ICON 04:45, 10:45, 16:45, 22:45 7 km 75h 1h
GFS 00:45, 06:45, 12:45, 18:45 25 km 237h 3h
30+ mm
25-30 mm
20-25 mm
15-20 mm
10-15 mm
6-10 mm
4-6 mm
2-4 mm
1-2 mm
0.5-1 mm
0.2-0.5 mm
0.1-0.2 mm
30+ mm
25-30 mm
20-25 mm
15-20 mm
10-15 mm
6-10 mm
4-6 mm
2-4 mm
1-2 mm
0.5-1 mm
0.2-0.5 mm
0.1-0.2 mm
Sneeuwval
Natte sneeuw
Hagel
Vorst
30+ mm
25-30 mm
20-25 mm
15-20 mm
10-15 mm
6-10 mm
4-6 mm
2-4 mm
1-2 mm
0.5-1 mm
0.2-0.5 mm
0.1-0.2 mm
Sneeuwval
Natte sneeuw
Hagel
Vorst
Onweer
50 mm
40 mm
30 mm
26 mm
22 mm
18 mm
14 mm
10 mm
9 mm
8 mm
7 mm
6 mm
5 mm
4.5 mm
4 mm
3.5 mm
3 mm
2.5 mm
2 mm
1.5 mm
1 mm
0.8 mm
0.6 mm
0.4 mm
0.2 mm
0.05 mm
35°
30°
25°
20°
15°
10°
-5°
-10°
-15°
-20°
-25°
-30°
-35°
33> m/s
29 m/s
25 m/s
21 m/s
17 m/s
14 m/s
11 m/s
8 m/s
5 m/s
3 m/s
0 m/s
2600 J/kg
2400 J/kg
2200 J/kg
2000 J/kg
1800 J/kg
1600 J/kg
1400 J/kg
1200 J/kg
1000 J/kg
800 J/kg
600 J/kg
400 J/kg
200 J/kg
70 dBZ
65 dBZ
60 dBZ
55 dBZ
50 dBZ
45 dBZ
40 dBZ
35 dBZ
30 dBZ
25 dBZ
20 dBZ
15 dBZ
10 dBZ
5 dBZ
-1 K
-2 K
-3 K
-4 K
-5 K
-6 K
-7 K
-8 K
-9 K
950 m²/s²
900 m²/s²
850 m²/s²
800 m²/s²
750 m²/s²
700 m²/s²
650 m²/s²
600 m²/s²
550 m²/s²
500 m²/s²
450 m²/s²
400 m²/s²
350 m²/s²
300 m²/s²
250 m²/s²
200 m²/s²
150 m²/s²
100 m²/s²
46 m/s
44 m/s
42 m/s
40 m/s
38 m/s
36 m/s
34 m/s
32 m/s
30 m/s
28 m/s
26 m/s
24 m/s
22 m/s
20 m/s
16 m/s
12 m/s
8 m/s
4 m/s
30 m/s
28 m/s
26 m/s
24 m/s
22 m/s
20 m/s
18 m/s
16 m/s
14 m/s
12 m/s
10 m/s
8 m/s
6 m/s
4 m/s
2 m/s
3.0
2.8
2.6
2.4
2.2
2.0
1.8
1.6
1.4
1.2
1.0
0.8
0.6
0.4
0.2
15
14
13
12
11
10
9
8
7
6
5
4
3
2
1
90%
80%
70%
60%
50%
40%
30%
20%
10%
42
40
38
36
34
32
30
28
26
24
22
20
18
16
14
12
90+ cm
80-90 cm
70-80 cm
60-70 cm
50-60 cm
40-50 cm
30-40 cm
20-30 cm
10-20 cm
1-10 cm
Sneeuwval
Natte sneeuw
Regen
>120 mm
115 mm
110 mm
105 mm
100 mm
95 mm
90 mm
85 mm
80 mm
75 mm
70 mm
65 mm
60 mm
55 mm
50 mm
45 mm
45 mm
40 mm
35 mm
30 mm
25 mm
20 mm
15 mm
10 mm
5 mm
0.1 mm
960 hPa
880 hPa
800 hPa
720 hPa
640 hPa
560 hPa
584 gpdm